CAPE
0 0 0 0 0 0 0 0 0 0 0 0 0 0 0 0 0 0 0 0 0 0 0 0 0 0 0 0 0 0 0 0
0 0 0 0 0 0 0 0 0 0 0 0 0 0 0 0 0 0 0 0 0 0 0 0 0 0 0 0 0 0 0 0
0 0 0 0 0 0 0 0 0 0 0 0 0 0 0 0 0 0 0 0 0 0 0 0 0 0 0 0 0 0 0 0
0 0 0 0 0 0 0 0 0 0 0 0 0 0 0 0 0 0 0 0 0 0 0 0 0 0 0 0 0 0 0 0
0 0 0 0 0 0 0 0 0 0 0 0 0 0 0 0 0 0 0 0 0 0 0 0 0 0 0 0 0 0 0 0
0 0 0 0 0 0 0 0 0 0 0 0 0 0 0 0 0 0 0 0 0 0 0 0 0 0 0 0 0 0 0 0
0 0 0 0 0 0 0 0 0 0 0 0 0 0 0 0 0 0 0 0 0 0 0 0 0 0 0 0 0 0 0 0
0 0 0 0 0 0 0 0 0 0 0 0 0 0 0 0 0 0 0 0 0 0 0 0 0 0 0 0 0 0 0 0
0 0 0 0 0 0 0 0 0 0 0 0 0 0 0 0 0 0 0 0 0 0 0 0 0 0 0 0 0 0 0 0
0 0 0 0 0 0 0 0 0 0 0 0 0 0 0 0 0 0 0 0 0 0 0 0 0 0 0 0 0 0 0 0
0 0 0 0 0 0 0 0 0 0 0 0 0 0 0 0 0 0 0 0 0 0 0 0 0 0 0 0 0 0 0 0
0 0 0 0 0 0 0 0 0 0 0 0 0 0 0 0 0 0 0 0 0 0 0 0 0 0 0 0 0 0 0 0
0 0 0 0 0 0 0 0 0 0 0 0 0 0 0 0 0 0 0 0 0 0 0 0 0 0 0 0 0 0 0 0
0 0 0 0 0 0 0 0 0 0 0 0 0 0 0 0 0 0 0 0 0 0 0 0 0 0 0 0 0 0 0 0
0 0 0 0 0 0 0 0 0 0 0 0 0 0 0 0 0 0 0 0 0 0 0 0 0 0 0 0 0 0 0 0
0 0 0 0 0 0 0 0 0 0 0 0 0 0 0 0 0 0 0 0 0 0 0 0 0 0 0 0 0 0 0 0
0 0 0 0 0 0 0 0 0 0 0 0 0 0 0 0 0 0 0 0 0 0 0 0 0 0 0 0 0 0 0 0
0 0 0 0 0 0 0 0 0 0 0 0 0 0 0 0 0 0 0 0 0 0 0 0 0 0 0 0 0 0 0 0
0 0 0 0 0 0 0 0 0 0 0 0 0 0 0 0 0 0 0 0 0 0 0 0 0 0 0 0 0 0 0 0
CIN
-0 -0 -0 -0 -0 -0 -0 -0 -0 -0 -0 -0 -0 -0 -0 -0 -0 -0 -0 -0 -0 -0 -0 -0 -0 -0 -0 -0 -0 -0 -0 -0
-0 -0 -0 -0 -0 -0 -0 -0 -0 -0 -0 -0 -0 -0 -0 -0 -0 -0 -0 -0 -0 -0 -0 -0 -0 -0 -0 -0 -0 -0 -0 -0
-0 -0 -0 -0 -0 -0 -0 -0 -0 -0 -0 -0 -0 -0 -0 -0 -0 -0 -0 -0 -0 -0 -0 -0 -0 -0 -0 -0 -0 -0 -0 -0
-0 -0 -0 -0 -0 -0 -0 -0 -0 -0 -0 -0 -0 -0 -0 -0 -0 -0 -0 -0 -0 -0 -0 -0 -0 -0 -0 -0 -0 -0 -0 -0
-0 -0 -0 -0 -0 -0 -0 -0 -0 -0 -0 -0 -0 -0 -0 -0 -0 -0 -0 -0 -0 -0 -0 -0 -0 -0 -0 -0 -0 -0 -0 -0
-0 -0 -0 -0 -0 -0 -0 -0 -0 -0 -0 -0 -0 -0 -0 -0 -0 -0 -0 -0 -0 -0 -0 -0 -0 -0 -0 -0 -0 -0 -0 -0
-0 -0 -0 -0 -0 -0 -0 -0 -0 -0 -0 -0 -0 -0 -0 -0 -0 -0 -0 -0 -0 -0 -0 -0 -0 -0 -0 -0 -0 -0 -0 -0
-0 -0 -0 -0 -0 -0 -0 -0 -0 -0 -0 -0 -0 -0 -0 -0 -0 -0 -0 -0 -0 -0 -0 -0 -0 -0 -0 -0 -0 -0 -0 -0
-0 -0 -0 -0 -0 -0 -0 -0 -0 -0 -0 -0 -0 -0 -0 -0 -0 -0 -0 -0 -0 -0 -0 -0 -0 -0 -0 -0 -0 -0 -0 -0
-0 -0 -0 -0 -0 -0 -0 -0 -0 -0 -0 -0 -0 -0 -0 -0 -0 -0 -0 -0 -0 -0 -0 -0 -0 -0 -0 -0 -0 -0 -0 -0
-0 -0 -0 -0 -0 -0 -0 -0 -0 -0 -0 -0 -0 -0 -0 -0 -0 -0 -0 -0 -0 -0 -0 -0 -0 -0 -0 -0 -0 -0 -0 -0
-0 -0 -0 -0 -0 -0 -0 -0 -0 -0 -0 -0 -0 -0 -0 -0 -0 -0 -0 -0 -0 -0 -0 -0 -0 -0 -0 -0 -0 -0 -0 -0
-0 -0 -0 -0 -0 -0 -0 -0 -0 -0 -0 -0 -0 -0 -0 -0 -0 -0 -0 -0 -0 -0 -0 -0 -0 -0 -0 -0 -0 -0 -0 -0
-0 -0 -0 -0 -0 -0 -0 -0 -0 -0 -0 -0 -0 -0 -0 -0 -0 -0 -0 -0 -0 -0 -0 -0 -0 -0 -0 -0 -0 -0 -0 -0
-0 -0 -0 -0 -0 -0 -0 -0 -0 -0 -0 -0 -0 -0 -0 -0 -0 -0 -0 -0 -0 -0 -0 -0 -0 -0 -0 -0 -0 -0 -0 -0
-0 -0 -0 -0 -0 -0 -0 -0 -0 -0 -0 -0 -0 -0 -0 -0 -0 -0 -0 -0 -0 -0 -0 -0 -0 -0 -0 -0 -0 -0 -0 -0
-0 -0 -0 -0 -0 -0 -0 -0 -0 -0 -0 -0 -0 -0 -0 -0 -0 -0 -0 -0 -0 -0 -0 -0 -0 -0 -0 -0 -0 -0 -0 -0
-0 -0 -0 -0 -0 -0 -0 -0 -0 -0 -0 -0 -0 -0 -0 -0 -0 -0 -0 -0 -0 -0 -0 -0 -0 -0 -0 -0 -0 -0 -0 -0
-0 -0 -0 -0 -0 -0 -0 -0 -0 -0 -0 -0 -0 -0 -0 -0 -0 -0 -0 -0 -0 -0 -0 -0 -0 -0 -0 -0 -0 -0 -0 -0
Wind_Speed
11 11 10 9 8 8 8 8 8 8 9 10 10 13 14 14 17 19 18 20 21 21 22 24 24 24 25 26 26 26 26 30
11 11 10 9 8 8 8 8 7 8 8 9 11 11 13 14 16 17 19 20 22 23 23 24 23 24 25 27 27 27 27 32
12 11 11 11 10 9 8 9 9 10 10 10 10 10 12 13 15 17 19 20 21 22 22 22 23 23 25 27 28 28 27 30
12 11 11 10 10 9 8 8 8 9 9 8 9 10 11 13 15 17 18 19 20 21 22 22 22 23 24 26 27 28 28 27
13 12 11 10 9 8 8 8 8 8 8 8 9 10 11 12 13 15 17 19 20 21 21 22 23 23 25 26 27 27 28 28
14 11 10 9 9 9 8 8 8 8 8 8 9 9 10 11 12 14 16 18 19 20 21 22 23 24 24 26 26 28 27 28
14 11 10 10 9 9 8 8 7 7 8 8 8 9 10 11 12 14 15 17 19 20 21 22 23 24 25 26 26 28 28 28
16 14 13 11 8 6 5 4 5 6 7 7 8 9 9 11 12 14 15 16 18 20 21 22 23 24 25 25 27 27 28 29
17 15 12 10 8 5 4 3 3 5 5 6 7 8 10 11 13 13 15 16 18 19 20 21 23 24 25 25 26 28 28 29
19 16 13 10 8 6 4 4 3 3 4 5 7 8 9 11 12 13 15 16 17 19 20 21 22 25 26 26 27 29 29 30
20 18 14 10 8 6 6 4 3 2 3 4 6 7 9 10 12 13 14 16 17 18 20 21 23 25 26 27 27 29 30 31
20 18 15 11 9 8 6 4 3 2 3 4 5 7 8 10 11 12 14 15 17 18 19 21 23 25 27 27 28 30 31 31
20 19 17 14 11 8 7 5 4 2 2 3 4 6 8 9 11 12 14 15 16 18 19 20 23 25 26 28 29 30 31 33
23 21 19 16 12 9 8 6 4 3 1 2 4 5 7 8 10 11 13 14 16 17 19 20 23 25 27 28 29 30 31 32
26 24 21 17 14 11 9 7 5 4 2 2 3 4 6 7 9 10 12 14 15 17 19 20 22 25 27 29 30 30 31 32
26 24 22 19 15 12 9 8 6 5 3 2 3 3 5 7 8 10 11 13 15 17 18 19 21 25 28 31 30 30 31 32
26 25 23 21 17 14 11 9 7 5 4 3 2 2 4 5 7 9 11 13 15 16 18 19 21 24 29 31 30 30 30 32
25 27 26 22 19 16 13 11 8 5 4 3 2 1 3 4 6 8 10 12 14 16 17 18 21 25 29 32 31 28 29 31
24 25 26 24 20 17 13 11 9 6 5 4 2 1 2 4 6 8 10 11 13 15 17 18 20 24 29 32 32 28 29 31
Wind_Direction
290 301 316 329 341 342 342 342 342 342 347 355 360 352 355 349 349 345 347 348 346 347 346 343 342 342 340 339 338 338 337 332
287 299 312 318 329 333 334 340 344 346 351 356 356 351 348 348 353 354 351 349 348 346 348 348 349 349 347 346 344 342 341 337
280 291 301 309 316 323 329 331 331 331 341 349 349 353 353 354 354 351 349 350 350 351 352 352 351 351 350 348 347 346 348 348
272 283 295 306 314 321 325 328 332 341 354 5 359 358 353 348 346 350 352 355 356 357 359 0 0 359 357 354 353 353 351 356
265 273 284 298 311 325 332 336 338 342 350 348 346 339 340 348 356 1 0 1 4 4 3 1 359 359 358 359 359 358 357 354
260 267 278 291 305 313 324 332 342 352 356 355 355 354 1 2 3 6 9 8 5 2 358 358 359 2 3 1 1 1 3 358
254 263 272 283 294 304 315 319 340 349 347 350 356 353 357 0 3 4 5 3 0 358 360 1 2 4 4 3 3 2 2 359
244 250 261 270 278 293 309 324 333 346 348 357 4 2 5 4 1 2 4 359 356 357 0 2 4 5 6 5 3 2 360 357
238 243 251 256 260 268 288 306 328 332 342 354 7 6 3 2 1 3 0 358 1 0 3 6 7 7 4 4 4 0 359 357
236 239 244 243 245 250 254 270 289 315 345 351 351 359 359 5 10 8 6 7 6 6 8 8 7 4 2 3 2 358 358 357
227 231 234 235 236 240 248 252 260 307 338 347 350 359 8 14 11 8 10 13 11 9 9 10 7 4 4 3 1 360 359 357
214 220 224 226 227 232 229 229 235 271 314 347 1 4 6 7 9 9 9 13 13 9 11 10 6 5 3 2 2 360 358 357
206 209 212 222 225 218 220 221 230 255 308 347 3 2 5 5 4 5 7 10 13 14 13 10 7 5 4 2 1 360 358 357
208 206 210 211 213 216 220 214 218 232 258 335 346 355 0 0 1 5 12 16 17 15 12 10 7 5 3 2 1 360 358 358
213 215 208 200 209 213 213 207 210 210 234 288 329 347 352 355 3 12 17 17 16 14 12 11 9 7 3 0 0 1 0 0
207 208 195 201 203 206 207 202 195 204 229 268 307 335 350 1 11 16 17 17 14 13 14 13 11 8 3 358 0 2 1 2
207 206 200 199 196 197 189 189 195 205 224 250 285 333 359 7 16 18 17 15 15 15 15 13 11 8 1 359 1 2 4 3
205 198 195 196 194 188 190 189 184 199 218 234 250 323 5 16 21 17 15 16 18 16 15 15 13 7 1 359 1 7 6 5
217 204 198 198 198 197 188 187 193 198 210 219 226 268 4 24 19 17 18 19 20 16 14 14 11 8 2 0 1 9 8 6